CW3094 Weather Reports


time (UTC)temp
C
wind
direction
speed
KPH
gust
KPH
rain 1hr
cm
rain 24hr
cm
rain mn
cm
humidity
%
barometer
mb
20260505093902 9 246 4.8 8.0 0.00 0.00 0.00 88 1008.8
20260505093402 9 246 6.4 9.7 0.00 0.00 0.00 88 1008.9
20260505092902 9 247 4.8 8.0 0.00 0.00 0.00 87 1008.9
20260505092402 9 240 3.2 4.8 0.00 0.00 0.00 87 1008.8
20260505091901 9 259 3.2 4.8 0.00 0.00 0.00 86 1008.7
20260505091401 9 247 3.2 4.8 0.00 0.00 0.00 86 1008.8
20260505090902 9 233 3.2 4.8 0.00 0.00 0.00 86 1008.8
20260505090402 9 273 3.2 4.8 0.00 0.00 0.00 85 1008.7
20260505085902 9 251 3.2 4.8 0.00 0.00 0.00 85 1008.7
20260505085402 10 262 3.2 8.0 0.00 0.00 0.00 84 1008.8
20260505084902 10 262 3.2 4.8 0.00 0.00 0.00 84 1008.8
20260505084401 10 278 3.2 4.8 0.00 0.00 0.00 84 1008.7
20260505083902 10 283 3.2 4.8 0.00 0.00 0.00 84 1008.7
20260505083402 10 269 3.2 4.8 0.00 0.00 0.00 84 1008.8
20260505082905 10 293 3.2 8.0 0.00 0.00 0.00 84 1008.8
20260505082402 10 268 4.8 4.8 0.00 0.00 0.00 83 1008.7
20260505081902 10 265 4.8 8.0 0.00 0.00 0.00 83 1008.8
20260505081402 10 264 3.2 8.0 0.00 0.00 0.00 82 1008.8
20260505080901 10 258 3.2 3.2 0.00 0.00 0.00 82 1008.9
20260505075902 10 278 3.2 4.8 0.00 0.00 0.00 82 1008.8
20260505075401 10 255 3.2 8.0 0.00 0.00 0.00 82 1008.9
20260505074902 10 278 4.8 9.7 0.00 0.00 0.00 82 1008.8
20260505074402 10 263 3.2 4.8 0.00 0.00 0.00 82 1008.8
20260505073901 10 253 3.2 8.0 0.00 0.00 0.00 83 1008.9
20260505073402 10 245 3.2 8.0 0.00 0.00 0.00 83 1008.8
20260505072902 10 240 4.8 9.7 0.00 0.00 0.00 83 1008.8
20260505072402 10 233 4.8 9.7 0.00 0.00 0.00 83 1008.8
20260505071902 10 267 3.2 8.0 0.00 0.00 0.00 83 1008.8
20260505071402 10 258 4.8 9.7 0.00 0.00 0.00 83 1008.7
20260505070902 10 261 4.8 8.0 0.00 0.00 0.00 83 1008.8
20260505065902 9 245 4.8 8.0 0.00 0.00 0.00 83 1008.8
20260505065402 9 247 3.2 4.8 0.00 0.00 0.00 84 1008.8
20260505064901 9 262 3.2 4.8 0.00 0.00 0.00 84 1008.8
20260505064401 10 251 4.8 8.0 0.00 0.00 0.00 83 1008.8
20260505063901 10 247 3.2 4.8 0.00 0.00 0.00 83 1008.8
20260505062902 10 247 3.2 4.8 0.00 0.00 0.00 83 1008.9
20260505062402 10 248 4.8 8.0 0.00 0.00 0.00 83 1008.9
20260505061901 10 228 3.2 8.0 0.00 0.00 0.00 83 1008.9
20260505061402 10 236 3.2 4.8 0.00 0.00 0.00 83 1008.9
20260505060901 10 247 3.2 4.8 0.00 0.00 0.00 83 1008.9
20260505055402 10 239 4.8 8.0 0.00 0.00 0.00 82 1009.2
20260505054902 10 249 4.8 8.0 0.00 0.00 0.00 83 1009.2
20260505054402 10 246 4.8 8.0 0.00 0.00 0.00 82 1009.2
20260505053901 10 241 4.8 8.0 0.00 0.00 0.00 81 1009.2
20260505053401 10 251 4.8 4.8 0.00 0.00 0.00 81 1009.2
20260505052902 10 235 3.2 8.0 0.00 0.00 0.00 81 1009.2
20260505052402 10 238 4.8 8.0 0.00 0.00 0.00 81 1009.2
20260505051902 10 231 3.2 9.7 0.00 0.00 0.00 81 1009.3
20260505051402 10 257 4.8 9.7 0.00 0.00 0.00 81 1009.2
20260505050402 10 245 4.8 9.7 0.00 0.00 0.00 80 1009.4
20260505041402 11 256 8.0 9.7 0.00 0.00 0.00 78 1009.5
20260505040903 11 258 4.8 9.7 0.00 0.00 0.00 78 1009.5
20260505040402 11 257 4.8 9.7 0.00 0.00 0.00 78 1009.5
20260505035902 11 258 4.8 8.0 0.00 0.00 0.00 77 1009.5
20260505035402 11 268 4.8 8.0 0.00 0.00 0.00 77 1009.6
20260505034902 11 258 4.8 9.7 0.00 0.00 0.00 76 1009.5
20260505034401 11 261 4.8 12.9 0.00 0.00 0.00 76 1009.5
20260505033905 11 260 6.4 11.3 0.00 0.00 0.00 76 1009.4
20260505033402 11 260 8.0 14.5 0.00 0.00 0.00 76 1009.4
20260505032902 11 273 6.4 9.7 0.00 0.00 0.00 76 1009.5
20260505031402 11 271 8.0 11.3 0.00 0.00 0.00 74 1009.5
20260505030902 11 258 8.0 9.7 0.00 0.00 0.00 74 1009.4
20260505030402 11 267 8.0 11.3 0.00 0.00 0.00 73 1009.4
20260505025902 12 277 6.4 11.3 0.00 0.00 0.00 73 1009.4
20260505025402 12 259 8.0 11.3 0.00 0.00 0.00 72 1009.4
20260505024903 12 258 8.0 12.9 0.00 0.00 0.00 71 1009.3
20260505024402 12 264 8.0 16.1 0.00 0.00 0.00 71 1009.3
20260505023902 12 273 9.7 20.9 0.00 0.00 0.00 70 1009.3
20260505023402 12 252 8.0 12.9 0.00 0.00 0.00 70 1009.4
20260505022902 12 249 9.7 12.9 0.00 0.00 0.00 69 1009.4
20260505022402 12 258 8.0 11.3 0.00 0.00 0.00 69 1009.5
20260505021402 12 246 8.0 12.9 0.00 0.00 0.00 68 1009.5
20260505020902 12 268 8.0 11.3 0.00 0.00 0.00 67 1009.4
20260505020402 12 277 8.0 11.3 0.00 0.00 0.00 67 1009.4
20260505015902 12 262 8.0 14.5 0.00 0.00 0.00 66 1009.4
20260505015402 12 255 8.0 11.3 0.00 0.00 0.00 65 1009.3
20260505014903 12 257 8.0 11.3 0.00 0.00 0.00 65 1009.3
20260505014402 12 271 8.0 12.9 0.00 0.00 0.00 65 1009.3
20260505013402 13 282 8.0 16.1 0.00 0.00 0.00 64 1009.2
20260505012902 13 260 8.0 14.5 0.00 0.00 0.00 63 1009.2
20260505011902 13 255 9.7 14.5 0.00 0.00 0.00 62 1009.1
20260505011402 13 252 8.0 14.5 0.00 0.00 0.00 61 1009.0
20260505010902 13 247 8.0 12.9 0.00 0.00 0.00 61 1008.9
20260505010402 13 251 8.0 14.5 0.00 0.00 0.00 60 1008.8
20260505005902 13 255 8.0 14.5 0.00 0.00 0.00 60 1008.8
20260505005402 13 250 8.0 11.3 0.00 0.00 0.00 60 1008.7
20260505004902 14 249 8.0 12.9 0.00 0.00 0.00 59 1008.6
20260505004402 14 248 8.0 14.5 0.00 0.00 0.00 59 1008.6
20260505003402 14 258 8.0 11.3 0.00 0.00 0.00 57 1008.4
20260505002402 15 256 4.8 12.9 0.00 0.00 0.00 57 1008.3
20260505001403 15 240 8.0 11.3 0.00 0.00 0.00 56 1008.1
20260505000902 15 243 8.0 12.9 0.00 0.00 0.00 56 1008.0
20260505000402 15 244 8.0 12.9 0.00 0.00 0.00 55 1007.9
20260504235902 15 253 8.0 19.3 0.00 0.00 0.00 55 1007.9
20260504235402 15 244 8.0 14.5 0.00 0.00 0.00 55 1007.7
20260504234902 15 257 8.0 11.3 0.00 0.00 0.00 54 1007.8
20260504234403 16 222 8.0 12.9 0.00 0.00 0.00 54 1007.6
20260504233902 16 234 8.0 14.5 0.00 0.00 0.00 53 1007.5
20260504233402 16 262 8.0 11.3 0.00 0.00 0.00 52 1007.4
20260504232403 16 243 6.4 16.1 0.00 0.00 0.00 51 1007.3
20260504231903 16 257 8.0 12.9 0.00 0.00 0.00 50 1007.2
20260504231402 17 226 9.7 14.5 0.00 0.00 0.00 49 1007.1
20260504230902 17 232 9.7 14.5 0.00 0.00 0.00 48 1006.9
20260504230402 17 238 11.3 16.1 0.00 0.00 0.00 48 1006.9
20260504225902 17 250 8.0 12.9 0.00 0.00 0.00 46 1006.9
20260504225402 18 240 6.4 14.5 0.00 0.00 0.00 45 1006.8
20260504224902 18 247 9.7 16.1 0.00 0.00 0.00 43 1006.8
20260504224402 18 225 8.0 20.9 0.00 0.00 0.00 38 1006.7
20260504223902 18 243 11.3 19.3 0.00 0.00 0.00 37 1006.7
20260504223402 18 244 8.0 16.1 0.00 0.00 0.00 37 1006.7
20260504222903 19 244 9.7 16.1 0.00 0.00 0.00 37 1006.7
20260504222402 19 249 4.8 16.1 0.00 0.00 0.00 37 1006.8
20260504221903 19 225 8.0 14.5 0.00 0.00 0.00 36 1006.8
20260504221403 19 244 8.0 12.9 0.00 0.00 0.00 37 1006.8
20260504220902 20 242 11.3 14.5 0.00 0.00 0.00 35 1006.8
20260504220403 20 262 8.0 14.5 0.00 0.00 0.00 36 1006.9
20260504215903 20 258 9.7 16.1 0.00 0.00 0.00 35 1006.9
20260504215403 20 240 4.8 14.5 0.00 0.00 0.00 34 1007.0
20260504214903 20 272 11.3 20.9 0.00 0.00 0.00 34 1007.0
20260504213902 20 253 9.7 14.5 0.00 0.00 0.00 35 1007.0
20260504213402 20 219 8.0 14.5 0.00 0.00 0.00 36 1007.1
20260504212902 20 272 9.7 14.5 0.00 0.00 0.00 35 1007.1
20260504212402 20 279 11.3 22.5 0.00 0.00 0.00 35 1007.1
20260504211902 20 267 9.7 19.3 0.00 0.00 0.00 34 1007.1
20260504211402 20 299 8.0 19.3 0.00 0.00 0.00 36 1007.2
20260504210902 20 280 9.7 22.5 0.00 0.00 0.00 35 1007.2
20260504205903 20 272 9.7 22.5 0.00 0.00 0.00 35 1007.2
20260504205403 20 302 9.7 20.9 0.00 0.00 0.00 35 1007.2
20260504204903 20 286 12.9 20.9 0.00 0.00 0.00 36 1007.2
20260504204402 20 232 8.0 14.5 0.00 0.00 0.00 37 1007.2
20260504203902 20 266 9.7 19.3 0.00 0.00 0.00 38 1007.4
20260504203403 20 236 12.9 19.3 0.00 0.00 0.00 35 1007.3
20260504202902 20 248 11.3 19.3 0.00 0.00 0.00 36 1007.3
20260504202402 20 270 11.3 16.1 0.00 0.00 0.00 36 1007.4
20260504201902 20 247 8.0 14.5 0.00 0.00 0.00 36 1007.4
20260504201402 20 256 8.0 16.1 0.00 0.00 0.00 35 1007.6
20260504200903 20 266 12.9 24.1 0.00 0.00 0.00 36 1007.6
20260504200403 20 257 14.5 27.4 0.00 0.00 0.00 36 1007.6
20260504195902 20 255 12.9 32.2 0.00 0.00 0.00 35 1007.8
20260504195402 20 275 14.5 20.9 0.00 0.00 0.00 33 1007.8
20260504194902 20 259 11.3 25.7 0.00 0.00 0.00 38 1007.8
20260504193907 20 289 14.5 24.1 0.00 0.00 0.00 34 1007.8
20260504193402 20 271 12.9 24.1 0.00 0.00 0.00 35 1008.0
20260504191902 20 280 14.5 32.2 0.00 0.00 0.00 35 1008.0
20260504191402 20 287 11.3 22.5 0.00 0.00 0.00 37 1008.0
20260504190402 20 267 12.9 38.6 0.00 0.00 0.00 38 1008.1
20260504185903 20 267 11.3 22.5 0.00 0.00 0.00 38 1008.2
20260504185403 20 268 14.5 20.9 0.00 0.00 0.00 41 1008.2
20260504184902 20 232 9.7 19.3 0.00 0.00 0.00 40 1008.3
20260504184402 20 259 11.3 20.9 0.00 0.00 0.00 40 1008.4
20260504183903 19 295 11.3 20.9 0.00 0.00 0.00 37 1008.4
20260504183403 19 274 14.5 38.6 0.00 0.00 0.00 38 1008.5
20260504182902 19 251 12.9 32.2 0.00 0.00 0.00 38 1008.5
20260504182402 19 243 12.9 33.8 0.00 0.00 0.00 38 1008.6
20260504181903 19 263 14.5 27.4 0.00 0.00 0.00 38 1008.6
20260504180902 19 257 11.3 22.5 0.00 0.00 0.00 39 1008.7
20260504180402 19 291 11.3 20.9 0.00 0.00 0.00 39 1008.8
20260504175902 18 246 14.5 22.5 0.00 0.00 0.00 38 1008.8
20260504175403 18 265 11.3 22.5 0.00 0.00 0.00 38 1008.9
20260504173902 19 275 14.5 24.1 0.00 0.00 0.00 42 1009.0
20260504173402 19 254 11.3 20.9 0.00 0.00 0.00 38 1009.0
20260504172902 19 247 12.9 22.5 0.00 0.00 0.00 38 1009.0
20260504171902 18 283 12.9 22.5 0.00 0.00 0.00 35 1009.1
20260504171403 18 262 12.9 27.4 0.00 0.00 0.00 40 1009.1
20260504170903 18 279 11.3 29.0 0.00 0.00 0.00 41 1009.2
20260504170402 18 263 11.3 29.0 0.00 0.00 0.00 40 1009.3
20260504160403 17 262 14.5 24.1 0.00 0.00 0.00 39 1009.8
20260504150902 16 272 14.5 27.4 0.00 0.00 0.00 40 1010.4
20260504150402 16 261 14.5 32.2 0.00 0.00 0.00 41 1010.5
20260504140903 15 270 11.3 14.5 0.00 0.00 0.00 44 1010.9
20260504130405 13 299 11.3 24.1 0.00 0.00 0.00 48 1011.4
20260504110403 6 269 8.0 9.7 0.00 0.00 0.00 69 1011.9
20260504100402 5 262 8.0 11.3 0.00 0.00 0.00 75 1011.4